Owensboro, KY

11:39 PM CDT on May 26, 2018 (GMT -0500)
Owensboro-Daviess County

Weather History for KOWB - January, 2014

Change the Weather History Date:

Tuesday, January 21, 2014

  Actual Average Record
Temperature  
Mean Temperature 22 °F -  
Max Temperature 34 °F 41 °F 71 °F (1986)
Min Temperature 10 °F 23 °F -15 °F (1984)
Degree Days  
Heating Degree Days 43    
Moisture  
Dew Point 19 °F    
Average Humidity 83    
Maximum Humidity 100    
Minimum Humidity 55    
Precipitation  
Precipitation 0.00 in - - ()
Sea Level Pressure  
Sea Level Pressure 30.05 in    
Wind  
Wind Speed 11 mph (NNW)    
Max Wind Speed 26 mph    
Max Gust Speed 36 mph    
Visibility 7 miles    
Events Snow    
Averages and records for this station are not official NWS values.
T = Trace of Precipitation, MM = Missing Value Source: NWS Daily Summary

Daily Weather History Graph

Daily Weather History Graph

Search for Another Location

Airport or City:

Astronomy

Jan. 21, 2014 Rise Set
Actual Time 7:00 AM CST 5:00 PM CST
Civil Twilight 6:31 AM CST 5:28 PM CST
Nautical Twilight 5:59 AM CST 6:00 PM CST
Astronomical Twilight 5:28 AM CST 6:31 PM CST
Moon 10:25 PM CST (1/21) 9:36 AM CST (1/21)
Length of Visible Light 10h 56m
Length of Day
10h 00m
Waning Gibbous, 74% of the Moon is Illuminated
Jan 21
Waning Gibbous
Jan 23
Last Quarter
Jan 30
New
Feb 6
First Quarter
Feb 14
Full

Hourly Weather History & Observations

Time (CST) Temp. Windchill Dew Point Humidity Pressure Visibility Wind Dir Wind Speed Gust Speed Precip Events Conditions
12:56 AM 34.9 °F 32.0 °F 31.1 °F 86% 29.85 in 10.0 mi NE 3.5 mph - N/A   Mostly Cloudy
1:56 AM 34.0 °F 29.8 °F 32.0 °F 92% 29.85 in 10.0 mi WNW 4.6 mph - N/A   Overcast
2:56 AM 32.0 °F 25.6 °F 32.0 °F 100% 29.85 in 5.0 mi West 6.9 mph - 0.00 in Snow Light Snow
3:14 AM 33.8 °F 27.7 °F 33.8 °F 100% 29.84 in 5.0 mi NW 6.9 mph - 0.00 in Snow Light Snow
3:56 AM 32.9 °F 27.5 °F 32.9 °F 100% 29.85 in 6.0 mi WNW 5.8 mph - 0.00 in   Overcast
4:24 AM 33.8 °F 28.6 °F 33.8 °F 100% 29.83 in 5.0 mi West 5.8 mph - N/A   Overcast
4:33 AM 32.0 °F 26.4 °F 32.0 °F 100% 29.83 in 5.0 mi West 5.8 mph - N/A   Overcast
4:56 AM 32.0 °F 27.5 °F 32.0 °F 100% 29.84 in 4.0 mi WNW 4.6 mph - N/A   Overcast
5:56 AM 32.9 °F 23.2 °F 32.9 °F 100% 29.85 in 4.0 mi WNW 13.8 mph - 0.00 in Snow Light Snow
6:08 AM 32.0 °F 21.6 °F 32.0 °F 100% 29.85 in 2.0 mi WNW 15.0 mph - 0.00 in Snow Light Snow
6:15 AM 32.0 °F 20.8 °F 32.0 °F 100% 29.86 in 1.0 mi NW 17.3 mph - 0.00 in Snow Light Snow
6:28 AM 30.2 °F 18.5 °F 30.2 °F 100% 29.88 in 1.0 mi North 17.3 mph 25.3 mph 0.00 in Snow Light Snow
6:40 AM 28.4 °F 13.5 °F 28.4 °F 100% 29.90 in 2.0 mi NNW 26.5 mph 35.7 mph 0.00 in Snow Light Snow
6:56 AM 27.1 °F 12.4 °F 27.1 °F 100% 29.94 in 2.0 mi North 24.2 mph 32.2 mph 0.00 in Snow Light Snow
7:14 AM 24.8 °F 11.5 °F 24.8 °F 100% 29.95 in 1.0 mi NNW 17.3 mph 28.8 mph 0.00 in Snow Light Snow
7:35 AM 23.0 °F 7.6 °F 21.2 °F 93% 29.98 in 0.8 mi North 21.9 mph 33.4 mph 0.00 in Snow Light Snow
7:56 AM 22.1 °F 7.2 °F 19.0 °F 88% 30.02 in 2.0 mi North 19.6 mph 32.2 mph 0.00 in Snow Light Snow
8:20 AM 19.4 °F 3.2 °F 15.8 °F 86% 30.04 in 4.0 mi North 20.7 mph 32.2 mph 0.00 in Snow Light Snow
8:56 AM 19.0 °F 2.4 °F 14.0 °F 81% 30.09 in 7.0 mi North 21.9 mph 29.9 mph 0.00 in   Mostly Cloudy
9:56 AM 18.1 °F 2.4 °F 13.1 °F 81% 30.16 in 5.0 mi North 18.4 mph 26.5 mph 0.00 in Snow Light Snow
10:56 AM 19.0 °F 2.7 °F 10.0 °F 68% 30.19 in 10.0 mi North 20.7 mph 26.5 mph 0.00 in   Mostly Cloudy
11:56 AM 21.0 °F 5.7 °F 7.2 °F 55% 30.18 in 10.0 mi NNE 19.6 mph 25.3 mph N/A   Mostly Cloudy
12:56 PM 21.0 °F 5.7 °F 7.2 °F 55% 30.19 in 10.0 mi North 19.6 mph 25.3 mph N/A   Mostly Cloudy
1:56 PM 20.1 °F 5.0 °F 13.1 °F 74% 30.19 in 10.0 mi NW 18.4 mph 26.5 mph N/A   Overcast
2:42 PM 19.4 °F 5.5 °F 10.4 °F 68% 30.19 in 10.0 mi NW 15.0 mph 23.0 mph 0.00 in   Mostly Cloudy
2:56 PM 19.0 °F 5.6 °F 9.1 °F 65% 30.22 in 10.0 mi NNW 13.8 mph 21.9 mph 0.00 in Snow Light Snow
3:56 PM 18.1 °F 3.9 °F 6.1 °F 59% 30.25 in 10.0 mi NNW 15.0 mph - 0.00 in   Mostly Cloudy
4:56 PM 17.1 °F 3.6 °F 4.1 °F 57% 30.27 in 10.0 mi NNW 12.7 mph 20.7 mph N/A   Scattered Clouds
5:56 PM 16.2 °F 1.9 °F 5.0 °F 62% 30.28 in 10.0 mi NNW 13.8 mph 20.7 mph N/A   Clear
6:56 PM 14.0 °F 0.5 °F 6.1 °F 71% 30.28 in 10.0 mi NNW 11.5 mph - N/A   Clear
7:56 PM 13.1 °F -0.7 °F 5.0 °F 70% 30.28 in 10.0 mi NNW 11.5 mph - N/A   Clear
8:56 PM 12.0 °F -1.3 °F 5.0 °F 73% 30.29 in 10.0 mi NNW 10.4 mph - N/A   Clear
9:56 PM 11.1 °F 0.4 °F 5.0 °F 76% 30.28 in 10.0 mi North 6.9 mph - N/A   Clear
10:56 PM 10.0 °F 1.8 °F 5.0 °F 80% 30.28 in 10.0 mi North 4.6 mph - N/A   Clear
11:56 PM 10.0 °F 1.8 °F 5.0 °F 80% 30.29 in 10.0 mi NW 4.6 mph - N/A   Clear